This is the latest recevied weather packets stored in our database for station/object N3WAX-1. If no packets are shown the sender has not sent any weather packets the latest 10 day(s).
| Time | Temp. | Humidity | Pressure | Rain* | Wind** | Luminosity | Snow |
|---|---|---|---|---|---|---|---|
| 1777521077 | 8.89° C | 95% | 1008.8 hPa | 1.02 mm | - | 0 W/m² | - |
| 1777519574 | 8.89° C | 95% | 1009 hPa | 1.52 mm | - | 0 W/m² | - |
| 1777518365 | 8.89° C | 95% | 1008.7 hPa | 1.52 mm | - | 0 W/m² | - |
| 1777518065 | 8.89° C | 95% | 1008.6 hPa | 2.03 mm | - | 0 W/m² | - |
| 1777515814 | 8.89° C | 94% | 1008.6 hPa | 4.32 mm | - | 0 W/m² | - |
| 1777515365 | 8.89° C | 94% | 1008.6 hPa | 4.06 mm | - | 0 W/m² | - |
| 1777514765 | 8.89° C | 94% | 1008.9 hPa | 3.81 mm | - | 0 W/m² | - |
| 1777514164 | 8.89° C | 93% | 1008.7 hPa | 2.03 mm | - | 0 W/m² | - |
| 1777513866 | 8.89° C | 93% | 1009.8 hPa | 1.02 mm | - | 0 W/m² | - |
| 1777513566 | 8.89° C | 93% | 1010 hPa | 0.76 mm | - | 0 W/m² | - |
| 1777512965 | 8.89° C | 93% | 1010.2 hPa | 0.25 mm | - | 0 W/m² | - |
| 1777512063 | 8.89° C | 92% | 1009.7 hPa | 0.25 mm | - | 0 W/m² | - |
| 1777511763 | 8.89° C | 92% | 1009.6 hPa | 0.25 mm | - | 0 W/m² | - |
| 1777507795 | 9.44° C | 88% | 1008.7 hPa | 1.02 mm | - | 0 W/m² | - |
| 1777507016 | 9.44° C | 86% | 1009 hPa | 0 mm | - | 0 W/m² | - |
| 1777506565 | 10° C | 85% | 1009.2 hPa | 0 mm | - | 0 W/m² | - |
| 1777506407 | 10° C | 84% | 1009.4 hPa | 0 mm | - | 0 W/m² | - |
| 1777504105 | 10.56° C | 79% | 1009.8 hPa | 0 mm | - | 0 W/m² | - |
| 1777503800 | 10.56° C | 79% | 1009.6 hPa | 0 mm | - | 5 W/m² | - |
| 1777503183 | 11.11° C | 77% | 1009.7 hPa | 0 mm | - | 7 W/m² | - |
| 1777502877 | 11.67° C | 76% | 1009.7 hPa | 0 mm | - | 12 W/m² | - |
| 1777501953 | 11.67° C | 75% | 1009.6 hPa | 0 mm | - | 21 W/m² | - |
| 1777499493 | 12.78° C | 72% | 1009.6 hPa | 0 mm | - | 32 W/m² | - |
| 1777495821 | 13.89° C | 70% | 1009.9 hPa | 0 mm | - | 114 W/m² | - |
| 1777494781 | 13.89° C | 69% | 1010.1 hPa | 0 mm | - | 202 W/m² | - |
* Rain latest hour (hover to see other rain measurements)
** Current wind speed in m/s (hover to see current wind gust speed)